site,time,unit,value
Middlefield,10/11/2023 00:00:00,MW,5.2853183
Middlefield,10/11/2023 00:05:00,MW,5.2269806
Middlefield,10/11/2023 00:10:00,MW,5.118438
Middlefield,10/11/2023 00:15:00,MW,5.239784500000001
Middlefield,10/11/2023 00:20:00,MW,5.2439865
Middlefield,10/11/2023 00:25:00,MW,5.1603274
Middlefield,10/11/2023 00:30:00,MW,5.2705294
Middlefield,10/11/2023 00:35:00,MW,5.234372799999999
Middlefield,10/11/2023 00:40:00,MW,5.188241
Middlefield,10/11/2023 00:45:00,MW,5.202079299999999
Middlefield,10/11/2023 00:50:00,MW,5.187292599999999
Middlefield,10/11/2023 00:55:00,MW,5.1647
Middlefield,10/11/2023 01:00:00,MW,5.3271346
Middlefield,10/11/2023 01:05:00,MW,5.3083537
Middlefield,10/11/2023 01:10:00,MW,5.1538126
Middlefield,10/11/2023 01:15:00,MW,5.131126399999999
Middlefield,10/11/2023 01:20:00,MW,5.1838565
Middlefield,10/11/2023 01:25:00,MW,5.2309345
Middlefield,10/11/2023 01:30:00,MW,5.244992
Middlefield,10/11/2023 01:35:00,MW,5.3219431
Middlefield,10/11/2023 01:40:00,MW,5.2130081
Middlefield,10/11/2023 01:45:00,MW,5.200105199999999
Middlefield,10/11/2023 01:50:00,MW,5.1141591
Middlefield,10/11/2023 01:55:00,MW,5.108454399999999
Middlefield,10/11/2023 02:00:00,MW,5.180077799999999
Middlefield,10/11/2023 02:05:00,MW,5.1241839
Middlefield,10/11/2023 02:10:00,MW,5.1044789999999995
Middlefield,10/11/2023 02:15:00,MW,5.0299747
Middlefield,10/11/2023 02:20:00,MW,5.042232
Middlefield,10/11/2023 02:25:00,MW,5.059309
Middlefield,10/11/2023 02:30:00,MW,5.063173
Middlefield,10/11/2023 02:35:00,MW,5.0974818
Middlefield,10/11/2023 02:40:00,MW,4.9957554
Middlefield,10/11/2023 02:45:00,MW,4.9732148
Middlefield,10/11/2023 02:50:00,MW,4.894703
Middlefield,10/11/2023 02:55:00,MW,4.869300600000001
Middlefield,10/11/2023 03:00:00,MW,4.8225155
Middlefield,10/11/2023 03:05:00,MW,4.7866779
Middlefield,10/11/2023 03:10:00,MW,4.8828968
Middlefield,10/11/2023 03:15:00,MW,4.804071
Middlefield,10/11/2023 03:20:00,MW,4.806535
Middlefield,10/11/2023 03:25:00,MW,4.8660572
Middlefield,10/11/2023 03:30:00,MW,4.8869246
Middlefield,10/11/2023 03:35:00,MW,4.8306687
Middlefield,10/11/2023 03:40:00,MW,4.8896346
Middlefield,10/11/2023 03:45:00,MW,4.9217858
Middlefield,10/11/2023 03:50:00,MW,4.9074126
Middlefield,10/11/2023 03:55:00,MW,4.9246074
Middlefield,10/11/2023 04:00:00,MW,4.9573865999999995
Middlefield,10/11/2023 04:05:00,MW,4.9024238
Middlefield,10/11/2023 04:10:00,MW,4.8741772
Middlefield,10/11/2023 04:15:00,MW,4.8678281000000005
Middlefield,10/11/2023 04:20:00,MW,4.8265460000000004
Middlefield,10/11/2023 04:25:00,MW,4.7756802
Middlefield,10/11/2023 04:30:00,MW,4.7935967
Middlefield,10/11/2023 04:35:00,MW,4.7421765
Middlefield,10/11/2023 04:40:00,MW,4.821117
Middlefield,10/11/2023 04:45:00,MW,4.836953
Middlefield,10/11/2023 04:50:00,MW,4.8174682
Middlefield,10/11/2023 04:55:00,MW,4.8786247
Middlefield,10/11/2023 05:00:00,MW,4.958431900000001
Middlefield,10/11/2023 05:05:00,MW,4.930122600000001
Middlefield,10/11/2023 05:10:00,MW,4.948760699999999
Middlefield,10/11/2023 05:15:00,MW,4.9327664
Middlefield,10/11/2023 05:20:00,MW,5.006118600000001
Middlefield,10/11/2023 05:25:00,MW,5.0481703
Middlefield,10/11/2023 05:30:00,MW,5.0735238
Middlefield,10/11/2023 05:35:00,MW,5.0828838
Middlefield,10/11/2023 05:40:00,MW,5.174166
Middlefield,10/11/2023 05:45:00,MW,5.2529974
Middlefield,10/11/2023 05:50:00,MW,5.3773174
Middlefield,10/11/2023 05:55:00,MW,5.5410988
Middlefield,10/11/2023 06:00:00,MW,5.7848922
Middlefield,10/11/2023 06:05:00,MW,5.8881181
Middlefield,10/11/2023 06:10:00,MW,6.0265979
Middlefield,10/11/2023 06:15:00,MW,6.101865500000001
Middlefield,10/11/2023 06:20:00,MW,6.0855438
Middlefield,10/11/2023 06:25:00,MW,6.2694786
Middlefield,10/11/2023 06:30:00,MW,6.4450792
Middlefield,10/11/2023 06:35:00,MW,6.608645
Middlefield,10/11/2023 06:40:00,MW,6.573485099999999
Middlefield,10/11/2023 06:45:00,MW,6.6917159999999996
Middlefield,10/11/2023 06:50:00,MW,6.966757599999999
Middlefield,10/11/2023 06:55:00,MW,7.08479
Middlefield,10/11/2023 07:00:00,MW,7.368364100000001
Middlefield,10/11/2023 07:05:00,MW,7.4357723
Middlefield,10/11/2023 07:10:00,MW,7.391025300000001
Middlefield,10/11/2023 07:15:00,MW,7.672591000000001
Middlefield,10/11/2023 07:20:00,MW,7.8562634
Middlefield,10/11/2023 07:25:00,MW,8.0698403
Middlefield,10/11/2023 07:30:00,MW,8.0026873
Middlefield,10/11/2023 07:35:00,MW,7.9584905
Middlefield,10/11/2023 07:40:00,MW,7.9387569
Middlefield,10/11/2023 07:45:00,MW,8.090363
Middlefield,10/11/2023 07:50:00,MW,8.215434
Middlefield,10/11/2023 07:55:00,MW,8.2143719
Middlefield,10/11/2023 08:00:00,MW,8.3314693
Middlefield,10/11/2023 08:05:00,MW,8.230761300000001
Middlefield,10/11/2023 08:10:00,MW,8.3047129
Middlefield,10/11/2023 08:15:00,MW,8.2478664
Middlefield,10/11/2023 08:20:00,MW,8.1455908
Middlefield,10/11/2023 08:25:00,MW,8.1070157
Middlefield,10/11/2023 08:30:00,MW,8.039321
Middlefield,10/11/2023 08:35:00,MW,8.132216
Middlefield,10/11/2023 08:40:00,MW,8.1751015
Middlefield,10/11/2023 08:45:00,MW,8.2171159
Middlefield,10/11/2023 08:50:00,MW,8.1683936
Middlefield,10/11/2023 08:55:00,MW,8.2588492
Middlefield,10/11/2023 09:00:00,MW,8.1233805
Middlefield,10/11/2023 09:05:00,MW,8.1014602
Middlefield,10/11/2023 09:10:00,MW,8.0724828
Middlefield,10/11/2023 09:15:00,MW,8.304003400000001
Middlefield,10/11/2023 09:20:00,MW,8.240347400000001
Middlefield,10/11/2023 09:25:00,MW,8.0610197
Middlefield,10/11/2023 09:30:00,MW,7.8397436
Middlefield,10/11/2023 09:35:00,MW,7.8258729
Middlefield,10/11/2023 09:40:00,MW,7.3935873
Middlefield,10/11/2023 09:45:00,MW,6.2893477
Middlefield,10/11/2023 09:50:00,MW,6.984996799999999
Middlefield,10/11/2023 09:55:00,MW,7.2630196
Middlefield,10/11/2023 10:00:00,MW,7.1999119
Middlefield,10/11/2023 10:05:00,MW,6.9655337
Middlefield,10/11/2023 10:10:00,MW,6.4652553
Middlefield,10/11/2023 10:15:00,MW,6.572104599999999
Middlefield,10/11/2023 10:20:00,MW,7.1748128
Middlefield,10/11/2023 10:25:00,MW,7.8070233
Middlefield,10/11/2023 10:30:00,MW,7.5299206000000005
Middlefield,10/11/2023 10:35:00,MW,7.2183364
Middlefield,10/11/2023 10:40:00,MW,6.9120638
Middlefield,10/11/2023 10:45:00,MW,6.581383199999999
Middlefield,10/11/2023 10:50:00,MW,5.8900101
Middlefield,10/11/2023 10:55:00,MW,5.821657
Middlefield,10/11/2023 11:00:00,MW,6.8991218
Middlefield,10/11/2023 11:05:00,MW,6.773968999999999
Middlefield,10/11/2023 11:10:00,MW,7.126105600000001
Middlefield,10/11/2023 11:15:00,MW,6.5133297
Middlefield,10/11/2023 11:20:00,MW,7.1479948
Middlefield,10/11/2023 11:25:00,MW,7.662725200000001
Middlefield,10/11/2023 11:30:00,MW,7.9133385
Middlefield,10/11/2023 11:35:00,MW,7.7757629999999995
Middlefield,10/11/2023 11:40:00,MW,7.745388500000001
Middlefield,10/11/2023 11:45:00,MW,7.6821465
Middlefield,10/11/2023 11:50:00,MW,8.0457655
Middlefield,10/11/2023 11:55:00,MW,7.904159
Middlefield,10/11/2023 12:00:00,MW,7.7757451
Middlefield,10/11/2023 12:05:00,MW,8.0262222
Middlefield,10/11/2023 12:10:00,MW,8.371372
Middlefield,10/11/2023 12:15:00,MW,8.3860907
Middlefield,10/11/2023 12:20:00,MW,8.4811118
Middlefield,10/11/2023 12:25:00,MW,8.4280098
Middlefield,10/11/2023 12:30:00,MW,8.388898699999999
Middlefield,10/11/2023 12:35:00,MW,8.470908399999999
Middlefield,10/11/2023 12:40:00,MW,8.348016099999999
Middlefield,10/11/2023 12:45:00,MW,8.559818100000001
Middlefield,10/11/2023 12:50:00,MW,8.502552999999999
Middlefield,10/11/2023 12:55:00,MW,8.3814373
Middlefield,10/11/2023 13:00:00,MW,8.186551999999999
Middlefield,10/11/2023 13:05:00,MW,8.1012168
Middlefield,10/11/2023 13:10:00,MW,8.1216034
Middlefield,10/11/2023 13:15:00,MW,8.0861775
Middlefield,10/11/2023 13:20:00,MW,8.1286173
Middlefield,10/11/2023 13:25:00,MW,7.942274100000001
Middlefield,10/11/2023 13:30:00,MW,7.881393
Middlefield,10/11/2023 13:35:00,MW,8.1738474
Middlefield,10/11/2023 13:40:00,MW,8.131973
Middlefield,10/11/2023 13:45:00,MW,8.1447449
Middlefield,10/11/2023 13:50:00,MW,7.952127
Middlefield,10/11/2023 13:55:00,MW,7.6192150000000005
Middlefield,10/11/2023 14:00:00,MW,7.4175165000000005
Middlefield,10/11/2023 14:05:00,MW,7.2799389
Middlefield,10/11/2023 14:10:00,MW,7.6087308
Middlefield,10/11/2023 14:15:00,MW,7.7830303
Middlefield,10/11/2023 14:20:00,MW,7.9440574
Middlefield,10/11/2023 14:25:00,MW,7.9665048
Middlefield,10/11/2023 14:30:00,MW,7.9353441
Middlefield,10/11/2023 14:35:00,MW,8.1398072
Middlefield,10/11/2023 14:40:00,MW,8.2139687
Middlefield,10/11/2023 14:45:00,MW,8.1289004
Middlefield,10/11/2023 14:50:00,MW,7.999543300000001
Middlefield,10/11/2023 14:55:00,MW,7.760102
Middlefield,10/11/2023 15:00:00,MW,7.676295
Middlefield,10/11/2023 15:05:00,MW,7.764807899999999
Middlefield,10/11/2023 15:10:00,MW,7.8692206
Middlefield,10/11/2023 15:15:00,MW,8.0070725
Middlefield,10/11/2023 15:20:00,MW,8.0079382
Middlefield,10/11/2023 15:25:00,MW,7.9942269999999995
Middlefield,10/11/2023 15:30:00,MW,8.1293004
Middlefield,10/11/2023 15:35:00,MW,8.146912500000001
Middlefield,10/11/2023 15:40:00,MW,8.2909007
Middlefield,10/11/2023 15:45:00,MW,8.4587412
Middlefield,10/11/2023 15:50:00,MW,8.6795968
Middlefield,10/11/2023 15:55:00,MW,8.781945
Middlefield,10/11/2023 16:00:00,MW,8.879122
Middlefield,10/11/2023 16:05:00,MW,8.900277599999999
Middlefield,10/11/2023 16:10:00,MW,8.788282
Middlefield,10/11/2023 16:15:00,MW,8.9142633
Middlefield,10/11/2023 16:20:00,MW,9.0671158
Middlefield,10/11/2023 16:25:00,MW,9.1619997
Middlefield,10/11/2023 16:30:00,MW,9.0509364
Middlefield,10/11/2023 16:35:00,MW,9.0430268
Middlefield,10/11/2023 16:40:00,MW,8.9768901
Middlefield,10/11/2023 16:45:00,MW,9.0452456
Middlefield,10/11/2023 16:50:00,MW,9.308929
Middlefield,10/11/2023 16:55:00,MW,9.4723239
Middlefield,10/11/2023 17:00:00,MW,9.5364497
Middlefield,10/11/2023 17:05:00,MW,9.535734699999999
Middlefield,10/11/2023 17:10:00,MW,9.465461300000001
Middlefield,10/11/2023 17:15:00,MW,9.6249975
Middlefield,10/11/2023 17:20:00,MW,9.551511
Middlefield,10/11/2023 17:25:00,MW,9.650871200000001
Middlefield,10/11/2023 17:30:00,MW,9.576004
Middlefield,10/11/2023 17:35:00,MW,9.664212
Middlefield,10/11/2023 17:40:00,MW,9.8660615
Middlefield,10/11/2023 17:45:00,MW,9.761799799999999
Middlefield,10/11/2023 17:50:00,MW,9.983875399999999
Middlefield,10/11/2023 17:55:00,MW,9.92114
Middlefield,10/11/2023 18:00:00,MW,9.865050400000001
Middlefield,10/11/2023 18:05:00,MW,10.0824105
Middlefield,10/11/2023 18:10:00,MW,10.049890600000001
Middlefield,10/11/2023 18:15:00,MW,10.067986
Middlefield,10/11/2023 18:20:00,MW,10.1578775
Middlefield,10/11/2023 18:25:00,MW,10.0486369
Middlefield,10/11/2023 18:30:00,MW,10.115199
Middlefield,10/11/2023 18:35:00,MW,9.9969697
Middlefield,10/11/2023 18:40:00,MW,10.1036353
Middlefield,10/11/2023 18:45:00,MW,10.1325775
Middlefield,10/11/2023 18:50:00,MW,10.0119137
Middlefield,10/11/2023 18:55:00,MW,9.913228100000001
Middlefield,10/11/2023 19:00:00,MW,9.8084185
Middlefield,10/11/2023 19:05:00,MW,9.783627
Middlefield,10/11/2023 19:10:00,MW,9.641557200000001
Middlefield,10/11/2023 19:15:00,MW,9.5839164
Middlefield,10/11/2023 19:20:00,MW,9.459300299999999
Middlefield,10/11/2023 19:25:00,MW,9.6100947
Middlefield,10/11/2023 19:30:00,MW,9.4041848
Middlefield,10/11/2023 19:35:00,MW,9.2412504
Middlefield,10/11/2023 19:40:00,MW,9.144904
Middlefield,10/11/2023 19:45:00,MW,9.0207102
Middlefield,10/11/2023 19:50:00,MW,8.92132
Middlefield,10/11/2023 19:55:00,MW,8.8789183
Middlefield,10/11/2023 20:00:00,MW,8.8002032
Middlefield,10/11/2023 20:05:00,MW,8.6798878
Middlefield,10/11/2023 20:10:00,MW,8.6264502
Middlefield,10/11/2023 20:15:00,MW,8.6350363
Middlefield,10/11/2023 20:20:00,MW,8.572118
Middlefield,10/11/2023 20:25:00,MW,8.4480532
Middlefield,10/11/2023 20:30:00,MW,8.3957012
Middlefield,10/11/2023 20:35:00,MW,8.447977999999999
Middlefield,10/11/2023 20:40:00,MW,8.398325
Middlefield,10/11/2023 20:45:00,MW,8.3288532
Middlefield,10/11/2023 20:50:00,MW,8.0910765
Middlefield,10/11/2023 20:55:00,MW,7.972483
Middlefield,10/11/2023 21:00:00,MW,8.0572935
Middlefield,10/11/2023 21:05:00,MW,7.8690609
Middlefield,10/11/2023 21:10:00,MW,7.8176494
Middlefield,10/11/2023 21:15:00,MW,7.7843693
Middlefield,10/11/2023 21:20:00,MW,7.6283763
Middlefield,10/11/2023 21:25:00,MW,7.5023955
Middlefield,10/11/2023 21:30:00,MW,7.436485299999999
Middlefield,10/11/2023 21:35:00,MW,7.3732732
Middlefield,10/11/2023 21:40:00,MW,7.349831
Middlefield,10/11/2023 21:45:00,MW,7.3094035
Middlefield,10/11/2023 21:50:00,MW,7.379277500000001
Middlefield,10/11/2023 21:55:00,MW,7.1448703
Middlefield,10/11/2023 22:00:00,MW,6.9403359
Middlefield,10/11/2023 22:05:00,MW,6.8516034999999995
Middlefield,10/11/2023 22:10:00,MW,6.8182468
Middlefield,10/11/2023 22:15:00,MW,6.7117574
Middlefield,10/11/2023 22:20:00,MW,6.583485
Middlefield,10/11/2023 22:25:00,MW,6.6014675
Middlefield,10/11/2023 22:30:00,MW,6.5114703
Middlefield,10/11/2023 22:35:00,MW,6.4580445
Middlefield,10/11/2023 22:40:00,MW,6.3019871
Middlefield,10/11/2023 22:45:00,MW,6.2938762
Middlefield,10/11/2023 22:50:00,MW,6.2344308
Middlefield,10/11/2023 22:55:00,MW,6.1616316
Middlefield,10/11/2023 23:00:00,MW,6.0793064
Middlefield,10/11/2023 23:05:00,MW,6.0639685
Middlefield,10/11/2023 23:10:00,MW,5.9804960000000005
Middlefield,10/11/2023 23:15:00,MW,5.9717232
Middlefield,10/11/2023 23:20:00,MW,5.8850579
Middlefield,10/11/2023 23:25:00,MW,5.7467573000000005
Middlefield,10/11/2023 23:30:00,MW,5.765556800000001
Middlefield,10/11/2023 23:35:00,MW,5.7699418
Middlefield,10/11/2023 23:40:00,MW,5.6035276
Middlefield,10/11/2023 23:45:00,MW,5.5362238
Middlefield,10/11/2023 23:50:00,MW,5.429371
Middlefield,10/11/2023 23:55:00,MW,5.3706816
